Hourly Data Report for February 06, 2017

All times are specified in Local Standard Time (LST). Add 1 hour to adjust for Daylight Saving Time where and when it is observed.

TORONTO INTL A
ONTARIO

43°40'36.000" N
79°37'50.000" W
173.40 m
6158731
71624
YYZ

Download Data

Hourly Data (February 2017)
Hourly Data Report for February 6, 2017
TIME Temp Definition
°C
Dew Point Definition
°C
Rel Hum Definition
%
Wind Dir Definition
10's deg

Wind Spd Definition
km/h
Visibility Definition
km
Stn Press Definition
kPa
Hmdx Definition


Wind Chill Definition


Weather Definition


00:00 -3.2 -9.3 63 32 14 24.1 99.64   -8 LegendNANA
01:00 -3.3 -9.0 65 30 15 24.1 99.68   -8 Snow Showers
02:00 -3.7 -8.8 68 28 12 24.1 99.68   -8 LegendNANA
03:00 -4.1 -9.2 68 27 10 24.1 99.75   -8 LegendNANA
04:00 -4.7 -8.8 73 27 6 24.1 99.71   -7 Mostly Cloudy
05:00 -5.6 -9.4 75 24 7 24.1 99.77   -9 LegendNANA
06:00 -5.0 -10.2 67 27 10 24.1 99.81   -9 LegendNANA
07:00 -4.7 -10.3 65 27 3 24.1 99.85   -6 Cloudy
08:00 -4.0 -10.7 60 22 7 24.1 99.79   -7 LegendNANA
09:00 -3.4 -10.1 60 20 9 24.1 99.87   -7 LegendNANA
10:00 -2.5 -9.7 58 21 12 24.1 99.83   -7 Cloudy
11:00 -1.7 -9.6 55 21 11 24.1 99.76   -6 LegendNANA
12:00 -1.2 -9.1 55 18 14 24.1 99.70   -6 LegendNANA
13:00 -0.6 -9.0 53 23 12 24.1 99.64   -5 Mostly Cloudy
14:00 0.4 -8.9 50 20 12 24.1 99.54     LegendNANA
15:00 1.4 -8.7 47 24 18 24.1 99.51     LegendNANA
16:00 1.2 -8.4 49 27 11 24.1 99.50     Mostly Cloudy
17:00 1.2 -8.9 47 19 9 24.1 99.45     LegendNANA
18:00 0.6 -8.4 51 21 9 24.1 99.43     LegendNANA
19:00 0.6 -7.4 55 15 4 24.1 99.37     Mostly Cloudy
20:00 0.6 -7.2 56 12 4 24.1 99.35     LegendNANA
21:00 0.5 -6.8 58 9 4 24.1 99.33     LegendNANA
22:00 0.8 -7.0 56 8 5 24.1 99.31     Cloudy
23:00 0.9 -6.0 60 8 8 24.1 99.24     LegendNANA

Notes on Data Quality.

Legend

  • E = Estimated
  • M = Missing
  • NA = Not Available
Date modified: